Theta_e
303 305 310 316 319 321 322 323 323 324 324 323 323 322 323 323 322 322 321 321 321 321
305 304 303 305 307 311 314 319 319 321 323 322 322 321 322 322 321 322 322 322 322 321
305 306 307 306 306 307 310 312 314 316 319 320 321 321 322 322 322 321 322 322 321 321
301 302 303 304 305 307 308 310 311 313 315 316 318 320 321 321 320 319 320 321 320 319
297 297 297 298 299 301 302 304 306 307 308 310 313 316 318 318 319 319 319 319 317 317
291 291 292 293 295 296 297 298 299 301 301 303 304 308 311 314 315 316 317 317 314 315
287 288 289 290 290 291 293 294 295 296 296 297 298 299 301 305 307 309 310 308 307 308
285 285 286 286 287 288 289 290 291 291 292 293 293 295 293 295 298 300 300 298 297 296
282 282 283 283 284 285 286 287 288 289 289 289 289 292 293 292 292 293 293 294 291 290
279 279 280 281 281 282 283 285 286 287 287 287 287 290 290 289 287 287 286 286 286 285
277 277 279 279 279 279 281 282 283 283 284 284 285 288 288 287 285 284 284 284 284 284
276 276 277 277 277 278 279 281 281 281 281 281 282 286 286 284 283 282 281 282 282 282
275 274 275 275 276 277 278 280 280 280 279 279 280 284 285 283 282 281 280 281 281 283
273 273 274 273 274 275 276 276 276 277 277 277 278 280 283 283 280 281 280 280 279 280
Wind_Speed
4 4 4 5 5 6 7 7 7 8 10 11 11 11 11 10 10 12 12 15 13 10
6 6 6 7 6 6 7 7 7 7 10 11 11 11 12 10 11 12 12 13 14 12
6 6 5 5 6 6 7 7 8 8 9 10 9 10 11 10 11 12 11 10 13 13
8 8 7 6 7 7 6 7 8 8 9 9 9 9 10 11 11 12 13 12 13 14
10 10 10 10 11 10 10 8 7 7 7 8 9 10 10 11 10 12 13 12 10 12
10 11 11 11 11 11 11 11 9 6 7 7 6 7 9 10 11 10 11 11 10 13
11 11 10 10 10 10 10 9 10 8 8 7 6 6 6 7 9 9 7 6 5 6
10 10 9 10 11 10 9 8 8 9 9 7 6 5 6 6 6 6 5 4 3 4
11 11 11 11 11 11 11 11 10 10 8 8 5 13 13 8 5 5 5 5 1 3
11 11 12 12 12 12 12 12 11 11 10 9 10 19 18 14 5 4 4 3 4 5
10 11 11 11 12 12 11 11 10 10 11 10 11 20 18 14 7 7 9 9 9 8
10 10 10 11 11 9 8 7 6 6 9 10 12 23 20 11 7 9 10 10 11 9
9 9 8 9 10 8 7 6 5 7 8 9 9 20 22 13 5 7 5 7 9 16
8 8 8 8 5 8 8 6 6 6 7 8 10 12 19 18 8 5 5 5 5 5
Wind_Direction
289 266 260 262 268 274 270 263 244 232 235 233 231 230 229 233 231 228 229 230 230 231
348 340 318 312 307 294 289 284 275 250 246 241 235 232 233 233 233 230 227 231 229 232
342 342 326 310 303 295 294 288 286 278 265 261 248 238 237 243 237 233 231 234 238 231
349 349 346 344 335 329 318 314 311 302 293 281 270 257 250 244 245 246 244 240 235 233
7 0 359 354 347 343 337 328 316 313 305 299 293 281 271 266 251 246 244 243 234 236
6 1 353 347 344 343 338 334 328 323 313 301 291 293 289 282 276 267 252 249 230 239
354 347 342 337 337 337 335 331 332 325 309 302 299 291 283 282 281 282 276 279 270 256
341 336 335 339 336 333 333 327 321 320 323 316 318 315 313 293 276 264 266 273 302 319
345 342 344 341 340 339 339 339 333 334 331 331 339 334 318 289 284 282 269 271 139 79
345 344 344 340 341 347 342 337 342 344 347 5 13 9 6 356 343 351 11 19 84 63
341 341 338 341 346 341 338 342 351 359 10 23 20 16 15 21 32 41 36 33 39 54
344 339 341 341 336 332 328 341 359 22 27 25 21 20 21 30 41 54 52 54 54 54
344 342 343 336 331 329 329 349 6 40 32 33 31 21 20 22 30 63 60 53 41 45
344 339 345 339 340 346 348 360 9 20 27 24 19 12 23 28 23 22 44 53 49 36